Regional Weather Roundup
Issued by NWS

Home | Current Version | Previous Version | Graphics & Text | Print | Product List | Glossary On
Versions: 1 2 3 4 5 6 7 8 9 10 11 12 13 14 15 16 17 18 19 20 21 22 23 24 25 26 27 28 29 30 31 32 33 34 35 36 37 38 39 40 41 42 43 44 45 46 47 48
000
ASUS45 KSLC 250410
RWRUT

UTAH REGIONAL WEATHER ROUNDUP
NATIONAL WEATHER SERVICE SALT LAKE CITY UT
900 PM MST WED DEC 24 2014

UTZ001>011-023>025-250500-

NORTHERN UTAH

CITY           SKY/WX    TMP DP  RH WIND       PRES   REMARKS
BRIGHAM CITY   CLOUDY    37  25  63 CALM      29.46F
HILL AFB       CLOUDY    40  23  49 E12       29.45F WCI  33
LOGAN          CLOUDY    33  25  72 CALM      29.45F
OGDEN          CLOUDY    40  25  55 E9        29.44F WCI  34
PROVO AIRPORT  CLOUDY    41  27  56 SE12      29.53F
SALT LAKE CITY CLOUDY    44  24  45 S17G23    29.43F
VERNAL         CLOUDY    25  17  72 N5        29.70F WCI  19
WENDOVER       CLOUDY    30  19  64 NW5       29.47F WCI  25
HEBER CITY     MIX PCPN  36  32  87 SW5       29.54F WCI  32
WEST JORDAN    PTCLDY    43  28  56 S23       29.46F

$$

UTZ012>022-026-027-250500-

SOUTHERN/CENTRAL UTAH

CITY           SKY/WX    TMP DP  RH WIND       PRES   REMARKS
BLANDING       CLOUDY    30  18  60 N6        29.89F WCI  24
BRYCE CANYON   CLOUDY    26  15  63 SE9       29.74F WCI  17
CEDAR CITY     PTCLDY    37  15  40 SW15      29.65F WCI  28
DELTA          CLOUDY    41  21  45 S26G33    29.53F
MILFORD        PTCLDY    36  15  42 S16G26    29.62F WCI  26
MOAB/CYNLANDS  CLEAR     30  19  63 NE5       29.73F WCI  25
PRICE          MOCLDY    25  13  60 NE7       29.72F WCI  17
ST GEORGE      CLOUDY    36  16  44 S5        29.76F WCI  32
KANAB          CLOUDY    32  23  69 CALM      29.79F

$$

REGIONAL REPORTS     COLORADO/ARIZONA

CITY           SKY/WX    TMP DP  RH WIND       PRES   REMARKS
CRAIG, CO      CLOUDY    27  14  58 E7        29.67F WCI  19
GRAND JUNCTION CLOUDY    28  22  78 E5        29.76F WCI  23
RIFLE          CLOUDY    25  17  72 NE3       29.78F
MONTROSE       CLOUDY    28  19  69 SE6       29.80F WCI  22
CORTEZ         PTCLDY    29  20  69 NE6       29.85F WCI  23
PAGE, AZ       MOCLDY    39  20  46 NW3       29.76F
GRAND CANYON   CLOUDY    37  14  38 SW12      29.84F WCI  29
KINGMAN        CLOUDY    48  12  23 SW12      29.83F
FLAGSTAFF      CLOUDY    33  12  41 SW13      29.89F WCI  24

$$

REGIONAL REPORTS    NEVADA/IDAHO/WYOMING

CITY           SKY/WX    TMP DP  RH WIND       PRES   REMARKS
LAS VEGAS, NV  PTCLDY    45  21  38 SW7       29.67F
ELY            MOCLDY    36  22  56 SE26G37   29.51F WCI  24
ELKO           CLOUDY    33  31  92 SW13      29.51F WCI  24
POCATELLO, ID  FLURRIES  36  34  92 S17G26    29.40F WCI  26
EVANSTON, WY   CLOUDY    33  26  75 S24       29.47F WCI  20
ROCK SPRINGS   CLOUDY    28  19  69 S9        29.52F WCI  19
KEMMERER       CLOUDY    32  27  80 SW15      29.49F WCI  22

$$


USA.gov is the U.S. government's official web portal to all federal, state and local government web resources and services.